owner,sensor,date,latitude,longitude,sea_surface_height_above_sea_level,qcFlag 
TCOON,ioos:station:TCOON:031:1,2019-02-01T00:24:00Z,28.4073,-96.7122,0.55,1111122 
TCOON,ioos:station:TCOON:031:1,2019-02-01T01:24:00Z,28.4073,-96.7122,0.637,1111122 
TCOON,ioos:station:TCOON:031:1,2019-02-01T02:24:00Z,28.4073,-96.7122,0.68,1111122 
TCOON,ioos:station:TCOON:031:1,2019-02-01T03:24:00Z,28.4073,-96.7122,0.668,1111122 
TCOON,ioos:station:TCOON:031:1,2019-02-01T04:24:00Z,28.4073,-96.7122,0.699,1111122 
TCOON,ioos:station:TCOON:031:1,2019-02-01T05:24:00Z,28.4073,-96.7122,0.689,1111122 
TCOON,ioos:station:TCOON:031:1,2019-02-01T06:24:00Z,28.4073,-96.7122,0.685,1111122 
TCOON,ioos:station:TCOON:031:1,2019-02-01T07:24:00Z,28.4073,-96.7122,0.654,1111122 
TCOON,ioos:station:TCOON:031:1,2019-02-01T08:24:00Z,28.4073,-96.7122,0.682,1111122 
TCOON,ioos:station:TCOON:031:1,2019-02-01T09:24:00Z,28.4073,-96.7122,0.681,1111122 
TCOON,ioos:station:TCOON:031:1,2019-02-01T10:24:00Z,28.4073,-96.7122,0.678,1111122 
TCOON,ioos:station:TCOON:031:1,2019-02-01T11:24:00Z,28.4073,-96.7122,0.681,1111122 
TCOON,ioos:station:TCOON:031:1,2019-02-01T12:24:00Z,28.4073,-96.7122,0.684,1111122 
TCOON,ioos:station:TCOON:031:1,2019-02-01T13:24:00Z,28.4073,-96.7122,0.681,1111122 
TCOON,ioos:station:TCOON:031:1,2019-02-01T14:24:00Z,28.4073,-96.7122,0.683,1111122 
TCOON,ioos:station:TCOON:031:1,2019-02-01T15:24:00Z,28.4073,-96.7122,0.674,1111122 
TCOON,ioos:station:TCOON:031:1,2019-02-01T16:24:00Z,28.4073,-96.7122,0.665,1111122 
TCOON,ioos:station:TCOON:031:1,2019-02-01T17:24:00Z,28.4073,-96.7122,0.657,1111122 
TCOON,ioos:station:TCOON:031:1,2019-02-01T18:24:00Z,28.4073,-96.7122,0.664,1111122 
TCOON,ioos:station:TCOON:031:1,2019-02-01T19:24:00Z,28.4073,-96.7122,0.661,1111122 
TCOON,ioos:station:TCOON:031:1,2019-02-01T20:24:00Z,28.4073,-96.7122,0.65,1111122 
TCOON,ioos:station:TCOON:031:1,2019-02-01T21:24:00Z,28.4073,-96.7122,0.668,1111122 
TCOON,ioos:station:TCOON:031:1,2019-02-01T22:24:00Z,28.4073,-96.7122,0.66,1111122 
TCOON,ioos:station:TCOON:031:1,2019-02-01T23:24:00Z,28.4073,-96.7122,0.664,1111122 
TCOON,ioos:station:TCOON:031:1,2019-02-02T00:24:00Z,28.4073,-96.7122,0.682,1111122 
TCOON,ioos:station:TCOON:031:1,2019-02-02T01:24:00Z,28.4073,-96.7122,0.677,1111122 
TCOON,ioos:station:TCOON:031:1,2019-02-02T02:24:00Z,28.4073,-96.7122,0.684,1111122 
TCOON,ioos:station:TCOON:031:1,2019-02-02T03:24:00Z,28.4073,-96.7122,0.688,1111122 
TCOON,ioos:station:TCOON:031:1,2019-02-02T04:24:00Z,28.4073,-96.7122,0.703,1111122 
TCOON,ioos:station:TCOON:031:1,2019-02-02T05:24:00Z,28.4073,-96.7122,0.702,1111122 
TCOON,ioos:station:TCOON:031:1,2019-02-02T06:24:00Z,28.4073,-96.7122,0.714,1111122 
TCOON,ioos:station:TCOON:031:1,2019-02-02T07:24:00Z,28.4073,-96.7122,0.725,1111122 
TCOON,ioos:station:TCOON:031:1,2019-02-02T08:24:00Z,28.4073,-96.7122,0.729,1111122 
TCOON,ioos:station:TCOON:031:1,2019-02-02T09:24:00Z,28.4073,-96.7122,0.735,1111122 
TCOON,ioos:station:TCOON:031:1,2019-02-02T10:24:00Z,28.4073,-96.7122,0.732,1111122 
TCOON,ioos:station:TCOON:031:1,2019-02-02T11:24:00Z,28.4073,-96.7122,0.731,1111122 
TCOON,ioos:station:TCOON:031:1,2019-02-02T12:24:00Z,28.4073,-96.7122,0.73,1111122 
TCOON,ioos:station:TCOON:031:1,2019-02-02T13:24:00Z,28.4073,-96.7122,0.731,1111122 
TCOON,ioos:station:TCOON:031:1,2019-02-02T14:24:00Z,28.4073,-96.7122,0.721,1111122 
TCOON,ioos:station:TCOON:031:1,2019-02-02T15:24:00Z,28.4073,-96.7122,0.711,1111122 
TCOON,ioos:station:TCOON:031:1,2019-02-02T16:24:00Z,28.4073,-96.7122,0.702,1111122 
TCOON,ioos:station:TCOON:031:1,2019-02-02T17:24:00Z,28.4073,-96.7122,0.679,1111122 
TCOON,ioos:station:TCOON:031:1,2019-02-02T18:24:00Z,28.4073,-96.7122,0.671,1111122 
TCOON,ioos:station:TCOON:031:1,2019-02-02T19:24:00Z,28.4073,-96.7122,0.661,1111122 
TCOON,ioos:station:TCOON:031:1,2019-02-02T20:24:00Z,28.4073,-96.7122,0.671,1111122 
TCOON,ioos:station:TCOON:031:1,2019-02-02T21:24:00Z,28.4073,-96.7122,0.655,1111122 
TCOON,ioos:station:TCOON:031:1,2019-02-02T22:24:00Z,28.4073,-96.7122,0.67,1111122 
TCOON,ioos:station:TCOON:031:1,2019-02-02T23:24:00Z,28.4073,-96.7122,0.675,1111122 
TCOON,ioos:station:TCOON:031:1,2019-02-03T00:24:00Z,28.4073,-96.7122,0.668,1111122 
TCOON,ioos:station:TCOON:031:1,2019-02-03T01:24:00Z,28.4073,-96.7122,0.688,1111122 
TCOON,ioos:station:TCOON:031:1,2019-02-03T02:24:00Z,28.4073,-96.7122,0.682,1111122 
TCOON,ioos:station:TCOON:031:1,2019-02-03T03:24:00Z,28.4073,-96.7122,0.695,1111122 
TCOON,ioos:station:TCOON:031:1,2019-02-03T04:24:00Z,28.4073,-96.7122,0.708,1111122 
TCOON,ioos:station:TCOON:031:1,2019-02-03T05:24:00Z,28.4073,-96.7122,0.7,1111122 
TCOON,ioos:station:TCOON:031:1,2019-02-03T06:24:00Z,28.4073,-96.7122,0.705,1111122 
TCOON,ioos:station:TCOON:031:1,2019-02-03T07:24:00Z,28.4073,-96.7122,0.709,1111122 
TCOON,ioos:station:TCOON:031:1,2019-02-03T08:24:00Z,28.4073,-96.7122,0.71,1111122 
TCOON,ioos:station:TCOON:031:1,2019-02-03T09:24:00Z,28.4073,-96.7122,0.712,1111122 
TCOON,ioos:station:TCOON:031:1,2019-02-03T10:24:00Z,28.4073,-96.7122,0.714,1111122 
TCOON,ioos:station:TCOON:031:1,2019-02-03T11:24:00Z,28.4073,-96.7122,0.711,1111122 
TCOON,ioos:station:TCOON:031:1,2019-02-03T12:24:00Z,28.4073,-96.7122,0.706,1111122 
TCOON,ioos:station:TCOON:031:1,2019-02-03T13:24:00Z,28.4073,-96.7122,0.694,1111122 
TCOON,ioos:station:TCOON:031:1,2019-02-03T14:24:00Z,28.4073,-96.7122,0.684,1111122 
TCOON,ioos:station:TCOON:031:1,2019-02-03T15:24:00Z,28.4073,-96.7122,0.67,1111122 
TCOON,ioos:station:TCOON:031:1,2019-02-03T16:24:00Z,28.4073,-96.7122,0.658,1111122 
TCOON,ioos:station:TCOON:031:1,2019-02-03T17:24:00Z,28.4073,-96.7122,0.646,1111122 
TCOON,ioos:station:TCOON:031:1,2019-02-03T18:24:00Z,28.4073,-96.7122,0.639,1111122 
TCOON,ioos:station:TCOON:031:1,2019-02-03T19:24:00Z,28.4073,-96.7122,0.625,1111122 
TCOON,ioos:station:TCOON:031:1,2019-02-03T20:24:00Z,28.4073,-96.7122,0.611,1111122 
TCOON,ioos:station:TCOON:031:1,2019-02-03T21:24:00Z,28.4073,-96.7122,0.603,1111122 
TCOON,ioos:station:TCOON:031:1,2019-02-03T22:30:00Z,28.4073,-96.7122,0.598,1111122 
TCOON,ioos:station:TCOON:031:1,2019-02-03T23:24:00Z,28.4073,-96.7122,0.594,1111122 
TCOON,ioos:station:TCOON:031:1,2019-02-04T00:24:00Z,28.4073,-96.7122,0.6,1111122 
TCOON,ioos:station:TCOON:031:1,2019-02-04T01:24:00Z,28.4073,-96.7122,0.61,1111122 
TCOON,ioos:station:TCOON:031:1,2019-02-04T02:24:00Z,28.4073,-96.7122,0.624,1111122 
TCOON,ioos:station:TCOON:031:1,2019-02-04T03:24:00Z,28.4073,-96.7122,0.64,1111122 
TCOON,ioos:station:TCOON:031:1,2019-02-04T04:24:00Z,28.4073,-96.7122,0.643,1111122 
TCOON,ioos:station:TCOON:031:1,2019-02-04T05:24:00Z,28.4073,-96.7122,0.652,1111122 
TCOON,ioos:station:TCOON:031:1,2019-02-04T06:24:00Z,28.4073,-96.7122,0.657,1111122 
TCOON,ioos:station:TCOON:031:1,2019-02-04T07:24:00Z,28.4073,-96.7122,0.654,1111122 
TCOON,ioos:station:TCOON:031:1,2019-02-04T08:24:00Z,28.4073,-96.7122,0.656,1111122 
TCOON,ioos:station:TCOON:031:1,2019-02-04T09:24:00Z,28.4073,-96.7122,0.663,1111122 
TCOON,ioos:station:TCOON:031:1,2019-02-04T10:24:00Z,28.4073,-96.7122,0.673,1111122 
TCOON,ioos:station:TCOON:031:1,2019-02-04T11:24:00Z,28.4073,-96.7122,0.676,1111122 
TCOON,ioos:station:TCOON:031:1,2019-02-04T12:24:00Z,28.4073,-96.7122,0.679,1111122 
TCOON,ioos:station:TCOON:031:1,2019-02-04T13:24:00Z,28.4073,-96.7122,0.676,1111122 
TCOON,ioos:station:TCOON:031:1,2019-02-04T14:24:00Z,28.4073,-96.7122,0.668,1111122 
TCOON,ioos:station:TCOON:031:1,2019-02-04T15:24:00Z,28.4073,-96.7122,0.654,1111122 
TCOON,ioos:station:TCOON:031:1,2019-02-04T16:24:00Z,28.4073,-96.7122,0.648,1111122 
TCOON,ioos:station:TCOON:031:1,2019-02-04T17:24:00Z,28.4073,-96.7122,0.639,1111122 
TCOON,ioos:station:TCOON:031:1,2019-02-04T18:24:00Z,28.4073,-96.7122,0.627,1111122 
TCOON,ioos:station:TCOON:031:1,2019-02-04T19:24:00Z,28.4073,-96.7122,0.613,1111122 
TCOON,ioos:station:TCOON:031:1,2019-02-04T20:24:00Z,28.4073,-96.7122,0.602,1111122 
TCOON,ioos:station:TCOON:031:1,2019-02-04T21:24:00Z,28.4073,-96.7122,0.594,1111122 
TCOON,ioos:station:TCOON:031:1,2019-02-04T22:24:00Z,28.4073,-96.7122,0.589,1111122 
TCOON,ioos:station:TCOON:031:1,2019-02-04T23:24:00Z,28.4073,-96.7122,0.578,1111122 
TCOON,ioos:station:TCOON:031:1,2019-02-05T00:24:00Z,28.4073,-96.7122,0.59,1111122 
TCOON,ioos:station:TCOON:031:1,2019-02-05T01:24:00Z,28.4073,-96.7122,0.597,1111122 
TCOON,ioos:station:TCOON:031:1,2019-02-05T02:24:00Z,28.4073,-96.7122,0.599,1111122 
TCOON,ioos:station:TCOON:031:1,2019-02-05T03:24:00Z,28.4073,-96.7122,0.608,1111122 
TCOON,ioos:station:TCOON:031:1,2019-02-05T04:24:00Z,28.4073,-96.7122,0.622,1111122 
TCOON,ioos:station:TCOON:031:1,2019-02-05T05:24:00Z,28.4073,-96.7122,0.647,1111122 
TCOON,ioos:station:TCOON:031:1,2019-02-05T06:24:00Z,28.4073,-96.7122,0.641,1111122 
TCOON,ioos:station:TCOON:031:1,2019-02-05T07:24:00Z,28.4073,-96.7122,0.645,1111122 
TCOON,ioos:station:TCOON:031:1,2019-02-05T08:24:00Z,28.4073,-96.7122,0.641,1111122 
TCOON,ioos:station:TCOON:031:1,2019-02-05T09:24:00Z,28.4073,-96.7122,0.648,1111122 
TCOON,ioos:station:TCOON:031:1,2019-02-05T10:24:00Z,28.4073,-96.7122,0.652,1111122 
TCOON,ioos:station:TCOON:031:1,2019-02-05T11:24:00Z,28.4073,-96.7122,0.656,1111122 
TCOON,ioos:station:TCOON:031:1,2019-02-05T12:24:00Z,28.4073,-96.7122,0.66,1111122 
TCOON,ioos:station:TCOON:031:1,2019-02-05T13:24:00Z,28.4073,-96.7122,0.658,1111122 
TCOON,ioos:station:TCOON:031:1,2019-02-05T14:24:00Z,28.4073,-96.7122,0.655,1111122 
TCOON,ioos:station:TCOON:031:1,2019-02-05T15:24:00Z,28.4073,-96.7122,0.645,1111122 
TCOON,ioos:station:TCOON:031:1,2019-02-05T16:24:00Z,28.4073,-96.7122,0.656,1111122 
TCOON,ioos:station:TCOON:031:1,2019-02-05T17:30:00Z,28.4073,-96.7122,0.634,1111122 
TCOON,ioos:station:TCOON:031:1,2019-02-05T18:24:00Z,28.4073,-96.7122,0.624,1111122 
TCOON,ioos:station:TCOON:031:1,2019-02-05T19:24:00Z,28.4073,-96.7122,0.613,1111122 
TCOON,ioos:station:TCOON:031:1,2019-02-05T20:24:00Z,28.4073,-96.7122,0.618,1111122 
TCOON,ioos:station:TCOON:031:1,2019-02-05T21:24:00Z,28.4073,-96.7122,0.612,1111122 
TCOON,ioos:station:TCOON:031:1,2019-02-05T22:24:00Z,28.4073,-96.7122,0.61,1111122 
TCOON,ioos:station:TCOON:031:1,2019-02-05T23:24:00Z,28.4073,-96.7122,0.589,1111122 
TCOON,ioos:station:TCOON:031:1,2019-02-06T00:24:00Z,28.4073,-96.7122,0.61,1111122 
TCOON,ioos:station:TCOON:031:1,2019-02-06T01:24:00Z,28.4073,-96.7122,0.612,1111122 
TCOON,ioos:station:TCOON:031:1,2019-02-06T02:24:00Z,28.4073,-96.7122,0.613,1111122 
TCOON,ioos:station:TCOON:031:1,2019-02-06T03:24:00Z,28.4073,-96.7122,0.631,1111122 
TCOON,ioos:station:TCOON:031:1,2019-02-06T04:24:00Z,28.4073,-96.7122,0.646,1111122 
TCOON,ioos:station:TCOON:031:1,2019-02-06T05:24:00Z,28.4073,-96.7122,0.643,1111122 
TCOON,ioos:station:TCOON:031:1,2019-02-06T06:24:00Z,28.4073,-96.7122,0.668,1111122 
TCOON,ioos:station:TCOON:031:1,2019-02-06T07:24:00Z,28.4073,-96.7122,0.667,1111122 
TCOON,ioos:station:TCOON:031:1,2019-02-06T08:24:00Z,28.4073,-96.7122,0.678,1111122 
TCOON,ioos:station:TCOON:031:1,2019-02-06T09:24:00Z,28.4073,-96.7122,0.681,1111122 
TCOON,ioos:station:TCOON:031:1,2019-02-06T10:24:00Z,28.4073,-96.7122,0.695,1111122 
TCOON,ioos:station:TCOON:031:1,2019-02-06T11:24:00Z,28.4073,-96.7122,0.707,1111122 
TCOON,ioos:station:TCOON:031:1,2019-02-06T12:24:00Z,28.4073,-96.7122,0.69,1111122 
TCOON,ioos:station:TCOON:031:1,2019-02-06T13:24:00Z,28.4073,-96.7122,0.694,1111122 
TCOON,ioos:station:TCOON:031:1,2019-02-06T14:24:00Z,28.4073,-96.7122,0.679,1111122 
TCOON,ioos:station:TCOON:031:1,2019-02-06T15:24:00Z,28.4073,-96.7122,0.677,1111122 
TCOON,ioos:station:TCOON:031:1,2019-02-06T16:24:00Z,28.4073,-96.7122,0.663,1111122 
TCOON,ioos:station:TCOON:031:1,2019-02-06T17:24:00Z,28.4073,-96.7122,0.66,1111122 
TCOON,ioos:station:TCOON:031:1,2019-02-06T18:24:00Z,28.4073,-96.7122,0.644,1111122 
TCOON,ioos:station:TCOON:031:1,2019-02-06T19:24:00Z,28.4073,-96.7122,0.642,1111122 
TCOON,ioos:station:TCOON:031:1,2019-02-06T20:24:00Z,28.4073,-96.7122,0.647,1111122 
TCOON,ioos:station:TCOON:031:1,2019-02-06T22:24:00Z,28.4073,-96.7122,0.637,1111122 
TCOON,ioos:station:TCOON:031:1,2019-02-06T23:24:00Z,28.4073,-96.7122,0.635,1111122 
TCOON,ioos:station:TCOON:031:1,2019-02-07T00:24:00Z,28.4073,-96.7122,0.627,1111122 
TCOON,ioos:station:TCOON:031:1,2019-02-07T01:24:00Z,28.4073,-96.7122,0.652,1111122 
TCOON,ioos:station:TCOON:031:1,2019-02-07T02:24:00Z,28.4073,-96.7122,0.665,1111122 
TCOON,ioos:station:TCOON:031:1,2019-02-07T03:24:00Z,28.4073,-96.7122,0.686,1111122 
TCOON,ioos:station:TCOON:031:1,2019-02-07T04:24:00Z,28.4073,-96.7122,0.73,1111122 
TCOON,ioos:station:TCOON:031:1,2019-02-07T05:24:00Z,28.4073,-96.7122,0.714,1111122 
TCOON,ioos:station:TCOON:031:1,2019-02-07T06:24:00Z,28.4073,-96.7122,0.664,1111122 
TCOON,ioos:station:TCOON:031:1,2019-02-07T07:24:00Z,28.4073,-96.7122,0.662,1111122 
TCOON,ioos:station:TCOON:031:1,2019-02-07T08:24:00Z,28.4073,-96.7122,0.711,1111122 
TCOON,ioos:station:TCOON:031:1,2019-02-07T09:24:00Z,28.4073,-96.7122,0.712,1111122 
TCOON,ioos:station:TCOON:031:1,2019-02-07T10:24:00Z,28.4073,-96.7122,0.853,1111122 
TCOON,ioos:station:TCOON:031:1,2019-02-07T11:24:00Z,28.4073,-96.7122,0.696,1111122 
TCOON,ioos:station:TCOON:031:1,2019-02-07T12:24:00Z,28.4073,-96.7122,0.694,1111122 
TCOON,ioos:station:TCOON:031:1,2019-02-07T13:24:00Z,28.4073,-96.7122,0.669,1111122 
TCOON,ioos:station:TCOON:031:1,2019-02-07T14:24:00Z,28.4073,-96.7122,0.707,1111122 
TCOON,ioos:station:TCOON:031:1,2019-02-07T15:24:00Z,28.4073,-96.7122,0.703,1111122 
TCOON,ioos:station:TCOON:031:1,2019-02-07T16:24:00Z,28.4073,-96.7122,0.713,1111122 
TCOON,ioos:station:TCOON:031:1,2019-02-07T17:24:00Z,28.4073,-96.7122,0.663,1111122 
TCOON,ioos:station:TCOON:031:1,2019-02-07T18:24:00Z,28.4073,-96.7122,0.649,1111122 
TCOON,ioos:station:TCOON:031:1,2019-02-07T19:24:00Z,28.4073,-96.7122,0.646,1111122 
TCOON,ioos:station:TCOON:031:1,2019-02-07T20:24:00Z,28.4073,-96.7122,0.467,1111122 
TCOON,ioos:station:TCOON:031:1,2019-02-07T21:24:00Z,28.4073,-96.7122,0.394,1111122 
TCOON,ioos:station:TCOON:031:1,2019-02-07T22:24:00Z,28.4073,-96.7122,0.513,1111122 
TCOON,ioos:station:TCOON:031:1,2019-02-07T23:24:00Z,28.4073,-96.7122,0.432,1111122 
TCOON,ioos:station:TCOON:031:1,2019-02-08T00:24:00Z,28.4073,-96.7122,0.432,1111122 
TCOON,ioos:station:TCOON:031:1,2019-02-08T01:24:00Z,28.4073,-96.7122,0.445,1111122 
TCOON,ioos:station:TCOON:031:1,2019-02-08T02:24:00Z,28.4073,-96.7122,0.406,1111122 
TCOON,ioos:station:TCOON:031:1,2019-02-08T03:24:00Z,28.4073,-96.7122,0.432,1111122 
TCOON,ioos:station:TCOON:031:1,2019-02-08T04:24:00Z,28.4073,-96.7122,0.42,1111122 
TCOON,ioos:station:TCOON:031:1,2019-02-08T05:24:00Z,28.4073,-96.7122,0.43,1111122 
TCOON,ioos:station:TCOON:031:1,2019-02-08T06:24:00Z,28.4073,-96.7122,0.499,1111122 
TCOON,ioos:station:TCOON:031:1,2019-02-08T07:24:00Z,28.4073,-96.7122,0.454,1111122 
TCOON,ioos:station:TCOON:031:1,2019-02-08T08:24:00Z,28.4073,-96.7122,0.473,1111122 
TCOON,ioos:station:TCOON:031:1,2019-02-08T09:24:00Z,28.4073,-96.7122,0.442,1111122 
TCOON,ioos:station:TCOON:031:1,2019-02-08T10:24:00Z,28.4073,-96.7122,0.384,1111122 
TCOON,ioos:station:TCOON:031:1,2019-02-08T11:24:00Z,28.4073,-96.7122,0.464,1111122 
TCOON,ioos:station:TCOON:031:1,2019-02-08T12:24:00Z,28.4073,-96.7122,0.488,1111122 
TCOON,ioos:station:TCOON:031:1,2019-02-08T13:24:00Z,28.4073,-96.7122,0.509,1111122 
TCOON,ioos:station:TCOON:031:1,2019-02-08T14:24:00Z,28.4073,-96.7122,0.503,1111122 
TCOON,ioos:station:TCOON:031:1,2019-02-08T15:24:00Z,28.4073,-96.7122,0.477,1111122 
TCOON,ioos:station:TCOON:031:1,2019-02-08T16:24:00Z,28.4073,-96.7122,0.472,1111122 
TCOON,ioos:station:TCOON:031:1,2019-02-08T17:24:00Z,28.4073,-96.7122,0.478,1111122 
TCOON,ioos:station:TCOON:031:1,2019-02-08T18:24:00Z,28.4073,-96.7122,0.476,1111122 
TCOON,ioos:station:TCOON:031:1,2019-02-08T19:24:00Z,28.4073,-96.7122,0.497,1111122 
TCOON,ioos:station:TCOON:031:1,2019-02-08T20:30:00Z,28.4073,-96.7122,0.459,1111122 
TCOON,ioos:station:TCOON:031:1,2019-02-08T21:24:00Z,28.4073,-96.7122,0.452,1111122 
TCOON,ioos:station:TCOON:031:1,2019-02-08T22:24:00Z,28.4073,-96.7122,0.438,1111122 
TCOON,ioos:station:TCOON:031:1,2019-02-08T23:24:00Z,28.4073,-96.7122,0.47,1111122 
TCOON,ioos:station:TCOON:031:1,2019-02-09T00:24:00Z,28.4073,-96.7122,0.463,1111122 
TCOON,ioos:station:TCOON:031:1,2019-02-09T01:24:00Z,28.4073,-96.7122,0.479,1111122 
TCOON,ioos:station:TCOON:031:1,2019-02-09T02:24:00Z,28.4073,-96.7122,0.484,1111122 
TCOON,ioos:station:TCOON:031:1,2019-02-09T03:24:00Z,28.4073,-96.7122,0.489,1111122 
TCOON,ioos:station:TCOON:031:1,2019-02-09T04:24:00Z,28.4073,-96.7122,0.494,1111122 
TCOON,ioos:station:TCOON:031:1,2019-02-09T05:24:00Z,28.4073,-96.7122,0.472,1111122 
TCOON,ioos:station:TCOON:031:1,2019-02-09T06:24:00Z,28.4073,-96.7122,0.462,1111122 
TCOON,ioos:station:TCOON:031:1,2019-02-09T07:24:00Z,28.4073,-96.7122,0.448,1111122 
TCOON,ioos:station:TCOON:031:1,2019-02-09T08:24:00Z,28.4073,-96.7122,0.457,1111122 
TCOON,ioos:station:TCOON:031:1,2019-02-09T09:24:00Z,28.4073,-96.7122,0.458,1111122 
TCOON,ioos:station:TCOON:031:1,2019-02-09T10:24:00Z,28.4073,-96.7122,0.467,1111122 
TCOON,ioos:station:TCOON:031:1,2019-02-09T11:24:00Z,28.4073,-96.7122,0.471,1111122 
TCOON,ioos:station:TCOON:031:1,2019-02-09T12:24:00Z,28.4073,-96.7122,0.481,1111122 
TCOON,ioos:station:TCOON:031:1,2019-02-09T13:24:00Z,28.4073,-96.7122,0.496,1111122 
TCOON,ioos:station:TCOON:031:1,2019-02-09T14:24:00Z,28.4073,-96.7122,0.501,1111122 
TCOON,ioos:station:TCOON:031:1,2019-02-09T15:24:00Z,28.4073,-96.7122,0.48,1111122 
TCOON,ioos:station:TCOON:031:1,2019-02-09T16:24:00Z,28.4073,-96.7122,0.517,1111122 
TCOON,ioos:station:TCOON:031:1,2019-02-09T17:24:00Z,28.4073,-96.7122,0.516,1111122 
TCOON,ioos:station:TCOON:031:1,2019-02-09T18:24:00Z,28.4073,-96.7122,0.504,1111122 
TCOON,ioos:station:TCOON:031:1,2019-02-09T19:24:00Z,28.4073,-96.7122,0.473,1111122 
TCOON,ioos:station:TCOON:031:1,2019-02-09T20:24:00Z,28.4073,-96.7122,0.46,1111122 
TCOON,ioos:station:TCOON:031:1,2019-02-09T21:24:00Z,28.4073,-96.7122,0.428,1111122 
TCOON,ioos:station:TCOON:031:1,2019-02-09T22:24:00Z,28.4073,-96.7122,0.469,1111122 
TCOON,ioos:station:TCOON:031:1,2019-02-09T23:24:00Z,28.4073,-96.7122,0.494,1111122 
TCOON,ioos:station:TCOON:031:1,2019-02-10T00:24:00Z,28.4073,-96.7122,0.524,1111122 
TCOON,ioos:station:TCOON:031:1,2019-02-10T01:24:00Z,28.4073,-96.7122,0.518,1111122 
TCOON,ioos:station:TCOON:031:1,2019-02-10T02:24:00Z,28.4073,-96.7122,0.539,1111122 
TCOON,ioos:station:TCOON:031:1,2019-02-10T03:24:00Z,28.4073,-96.7122,0.551,1111122 
TCOON,ioos:station:TCOON:031:1,2019-02-10T04:24:00Z,28.4073,-96.7122,0.562,1111122 
TCOON,ioos:station:TCOON:031:1,2019-02-10T05:24:00Z,28.4073,-96.7122,0.575,1111122 
TCOON,ioos:station:TCOON:031:1,2019-02-10T06:24:00Z,28.4073,-96.7122,0.535,1111122 
TCOON,ioos:station:TCOON:031:1,2019-02-10T07:24:00Z,28.4073,-96.7122,0.52,1111122 
TCOON,ioos:station:TCOON:031:1,2019-02-10T08:24:00Z,28.4073,-96.7122,0.524,1111122 
TCOON,ioos:station:TCOON:031:1,2019-02-10T09:24:00Z,28.4073,-96.7122,0.562,1111122 
TCOON,ioos:station:TCOON:031:1,2019-02-10T10:24:00Z,28.4073,-96.7122,0.613,1111122 
TCOON,ioos:station:TCOON:031:1,2019-02-10T11:24:00Z,28.4073,-96.7122,0.614,1111122 
TCOON,ioos:station:TCOON:031:1,2019-02-10T12:24:00Z,28.4073,-96.7122,0.617,1111122 
TCOON,ioos:station:TCOON:031:1,2019-02-10T13:24:00Z,28.4073,-96.7122,0.62,1111122 
TCOON,ioos:station:TCOON:031:1,2019-02-10T14:24:00Z,28.4073,-96.7122,0.599,1111122 
TCOON,ioos:station:TCOON:031:1,2019-02-10T15:24:00Z,28.4073,-96.7122,0.595,1111122 
TCOON,ioos:station:TCOON:031:1,2019-02-10T16:24:00Z,28.4073,-96.7122,0.574,1111122 
TCOON,ioos:station:TCOON:031:1,2019-02-10T17:24:00Z,28.4073,-96.7122,0.593,1111122 
TCOON,ioos:station:TCOON:031:1,2019-02-10T18:24:00Z,28.4073,-96.7122,0.618,1111122 
TCOON,ioos:station:TCOON:031:1,2019-02-10T19:24:00Z,28.4073,-96.7122,0.626,1111122 
TCOON,ioos:station:TCOON:031:1,2019-02-10T20:24:00Z,28.4073,-96.7122,0.621,1111122 
TCOON,ioos:station:TCOON:031:1,2019-02-10T21:24:00Z,28.4073,-96.7122,0.615,1111122 
TCOON,ioos:station:TCOON:031:1,2019-02-10T22:24:00Z,28.4073,-96.7122,0.616,1111122 
TCOON,ioos:station:TCOON:031:1,2019-02-10T23:24:00Z,28.4073,-96.7122,0.623,1111122 
TCOON,ioos:station:TCOON:031:1,2019-02-11T00:24:00Z,28.4073,-96.7122,0.615,1111122 
TCOON,ioos:station:TCOON:031:1,2019-02-11T01:24:00Z,28.4073,-96.7122,0.612,1111122 
TCOON,ioos:station:TCOON:031:1,2019-02-11T02:24:00Z,28.4073,-96.7122,0.594,1111122 
TCOON,ioos:station:TCOON:031:1,2019-02-11T03:24:00Z,28.4073,-96.7122,0.608,1111122 
TCOON,ioos:station:TCOON:031:1,2019-02-11T04:24:00Z,28.4073,-96.7122,0.612,1111122 
TCOON,ioos:station:TCOON:031:1,2019-02-11T05:42:00Z,28.4073,-96.7122,0.63,1111122 
TCOON,ioos:station:TCOON:031:1,2019-02-11T06:24:00Z,28.4073,-96.7122,0.644,1111122 
TCOON,ioos:station:TCOON:031:1,2019-02-11T07:24:00Z,28.4073,-96.7122,0.636,1111122 
TCOON,ioos:station:TCOON:031:1,2019-02-11T08:24:00Z,28.4073,-96.7122,0.642,1111122 
TCOON,ioos:station:TCOON:031:1,2019-02-11T09:24:00Z,28.4073,-96.7122,0.645,1111122 
TCOON,ioos:station:TCOON:031:1,2019-02-11T10:24:00Z,28.4073,-96.7122,0.645,1111122 
TCOON,ioos:station:TCOON:031:1,2019-02-11T11:24:00Z,28.4073,-96.7122,0.629,1111122 
TCOON,ioos:station:TCOON:031:1,2019-02-11T12:24:00Z,28.4073,-96.7122,0.618,1111122 
TCOON,ioos:station:TCOON:031:1,2019-02-11T13:24:00Z,28.4073,-96.7122,0.62,1111122 
TCOON,ioos:station:TCOON:031:1,2019-02-11T14:24:00Z,28.4073,-96.7122,0.617,1111122 
TCOON,ioos:station:TCOON:031:1,2019-02-11T15:24:00Z,28.4073,-96.7122,0.611,1111122 
TCOON,ioos:station:TCOON:031:1,2019-02-11T16:24:00Z,28.4073,-96.7122,0.623,1111122 
TCOON,ioos:station:TCOON:031:1,2019-02-11T17:24:00Z,28.4073,-96.7122,0.619,1111122 
TCOON,ioos:station:TCOON:031:1,2019-02-11T18:30:00Z,28.4073,-96.7122,0.622,1111122 
TCOON,ioos:station:TCOON:031:1,2019-02-11T19:24:00Z,28.4073,-96.7122,0.622,1111122 
TCOON,ioos:station:TCOON:031:1,2019-02-11T20:24:00Z,28.4073,-96.7122,0.63,1111122 
TCOON,ioos:station:TCOON:031:1,2019-02-11T21:24:00Z,28.4073,-96.7122,0.619,1111122 
TCOON,ioos:station:TCOON:031:1,2019-02-11T22:24:00Z,28.4073,-96.7122,0.611,1111122 
TCOON,ioos:station:TCOON:031:1,2019-02-11T23:24:00Z,28.4073,-96.7122,0.602,1111122 
TCOON,ioos:station:TCOON:031:1,2019-02-12T00:24:00Z,28.4073,-96.7122,0.596,1111122 
TCOON,ioos:station:TCOON:031:1,2019-02-12T01:24:00Z,28.4073,-96.7122,0.587,1111122 
TCOON,ioos:station:TCOON:031:1,2019-02-12T02:24:00Z,28.4073,-96.7122,0.593,1111122 
TCOON,ioos:station:TCOON:031:1,2019-02-12T03:24:00Z,28.4073,-96.7122,0.592,1111122 
TCOON,ioos:station:TCOON:031:1,2019-02-12T04:24:00Z,28.4073,-96.7122,0.578,1111122 
TCOON,ioos:station:TCOON:031:1,2019-02-12T05:24:00Z,28.4073,-96.7122,0.59,1111122 
TCOON,ioos:station:TCOON:031:1,2019-02-12T06:24:00Z,28.4073,-96.7122,0.587,1111122 
TCOON,ioos:station:TCOON:031:1,2019-02-12T07:24:00Z,28.4073,-96.7122,0.582,1111122 
TCOON,ioos:station:TCOON:031:1,2019-02-12T08:24:00Z,28.4073,-96.7122,0.561,1111122 
TCOON,ioos:station:TCOON:031:1,2019-02-12T09:24:00Z,28.4073,-96.7122,0.554,1111122 
TCOON,ioos:station:TCOON:031:1,2019-02-12T10:24:00Z,28.4073,-96.7122,0.474,1111122 
TCOON,ioos:station:TCOON:031:1,2019-02-12T11:24:00Z,28.4073,-96.7122,0.477,1111122 
TCOON,ioos:station:TCOON:031:1,2019-02-12T12:24:00Z,28.4073,-96.7122,0.542,1111122 
TCOON,ioos:station:TCOON:031:1,2019-02-12T13:24:00Z,28.4073,-96.7122,0.541,1111122 
TCOON,ioos:station:TCOON:031:1,2019-02-12T14:24:00Z,28.4073,-96.7122,0.466,1111122 
TCOON,ioos:station:TCOON:031:1,2019-02-12T15:24:00Z,28.4073,-96.7122,0.378,1111122 
TCOON,ioos:station:TCOON:031:1,2019-02-12T16:24:00Z,28.4073,-96.7122,0.395,1111122 
TCOON,ioos:station:TCOON:031:1,2019-02-12T17:24:00Z,28.4073,-96.7122,0.423,1111122 
TCOON,ioos:station:TCOON:031:1,2019-02-12T18:24:00Z,28.4073,-96.7122,0.414,1111122 
TCOON,ioos:station:TCOON:031:1,2019-02-12T19:24:00Z,28.4073,-96.7122,0.431,1111122 
TCOON,ioos:station:TCOON:031:1,2019-02-12T20:24:00Z,28.4073,-96.7122,0.454,1111122 
TCOON,ioos:station:TCOON:031:1,2019-02-12T21:24:00Z,28.4073,-96.7122,0.454,1111122 